Regional Weather Roundup
Issued by NWS

Home | Current Version | Previous Version | Text Only | Print | Product List | Glossary On
Versions: 1 2 3 4 5 6 7 8 9 10 11 12 13 14 15 16 17 18 19 20 21 22 23 24 25 26 27 28 29 30 31 32 33 34 35 36 37 38 39 40 41 42 43 44 45 46 47 48 49 50
000
ASUS42 KTBW 290617
RWRFL
FLORIDA REGIONAL WEATHER ROUNDUP
NATIONAL WEATHER SERVICE TAMPA BAY RUSKIN FL
200 AM EDT FRI MAY 29 2015

NOTE: "FAIR" INDICATES FEW OR NO CLOUDS BELOW 12,000 FEET WITH NO
SIGNIFICANT WEATHER AND/OR OBSTRUCTIONS TO VISIBILITY.


FLZ001>010-012>015-112-114-115-290700-
PANHANDLE FLORIDA

CITY           SKY/WX    TMP DP  RH WIND       PRES   REMARKS
PENSACOLA      PTCLDY    72  71  97 NE6       30.09F
PENSACOLA NAS  MOCLDY    76  72  87 E8        30.07F
MILTON NAS     CLEAR     69  68  96 CALM      30.10
CRESTVIEW      FOG       67  66  97 CALM      30.12F VSB 1/2
DUKE FIELD     FAIR      69  68  96 NE2       30.09F
VALPARAISO     PTCLDY    72  69  89 NE3       30.09F
MARY ESTHER    CLEAR     73  69  89 E5        30.08F
TRI COUNTY     FAIR      68  67  96 CALM      30.11F FOG
PANAMA CITY    MOCLDY    70  69  97 N5        30.10F FOG
TYNDALL AFB    CLEAR     71  70  96 NE5       30.10F
APALACHICOLA   CLEAR     74  69  85 NE7       30.10F

STATION/POSITION SKY/WX   TEMP    WIND        PRES    WAVE   SWELL
                          AIR SEA DIR/SP/G            HT/PER HT/PER
                          (F)     (DEG/KT/KT) (MB)    (FT/S) (FT/S)
30.1N   87.6W              78 80  110/ 10/ 12 1017.7F   3/ 8   2/ 8
29.2N   88.2W              78 80  120/ 10/ 12 1018.2F   2/ 4   2/ 7
28.8N   86.0W              79 81   90/  6/  8 1019.6    3/ 6   3/ 6
PANAMA CITY BEAC           72 81   20/  5/  7 1019.7F
CAPE SAN BLAS    NOT AVBL
TOWER C                    77      40/ 15/ 16 1018.7F
28.5N   84.5W              80 81   30/ 14/ 16 1018.7F   2/ 6   2/ 6

$$
FLZ011-016>038-118-127-128-134-139-239-290700-
NORTH FLORIDA

CITY           SKY/WX    TMP DP  RH WIND       PRES   REMARKS
MARIANNA       LGT RAIN  70  70 100 E6        30.12F
TALLAHASSEE    PTCLDY    75  70  84 NE6       30.12F
PERRY          CLEAR     72  65  77 E6        30.13F
CROSS CITY       N/A     67  63  87 CALM      30.12F
LAKE CITY      FAIR      64  63  94 CALM      30.14F
GAINESVILLE    CLEAR     66  63  90 CALM      30.13F
MAYPORT NAS    PTCLDY    76  62  62 E10       30.14F
JACKSONVILLE   PTCLDY    66  63  90 CALM      30.14F
JAX NAS        PTCLDY    79  65  62 E8        30.14F
JAX CRAIG      CLOUDY    74  65  73 E3        30.14F
JAX CECIL      PTCLDY    64  64 100 CALM      30.15F
FERNANDINA BEA FAIR      79  66  65 E5        30.13F
ST AUGUSTINE   CLEAR     76  63  64 E10       30.14F

STATION/POSITION SKY/WX   TEMP    WIND        PRES    WAVE   SWELL
                          AIR SEA DIR/SP/G            HT/PER HT/PER
                          (F)     (DEG/KT/KT) (MB)    (FT/S) (FT/S)
SHELL POINT                74      10/  5/  9   N/A
KEATON BEACH               72      80/  7/  8 1020.0F
CEDAR KEY                  76     100/ 14/ 16 1020.3F
FERNANDINA                 75 82  110/  3/  6 1020.7F
30.7N   81.3W                 79                N/A     3/ 8
MAYPORT                    77 80  100/  9/ 11 1021.3F
31.4N   80.9W              77 78  120/  8/ 10 1021.4F   3/ 7   3/ 7
ST AUGUSTINE               76 79   80/ 11/ 13 1021.2F

$$
FLZ040-043>046-052-053-057-058-063-144-290700-
INTERIOR CENTRAL FLORIDA

CITY           SKY/WX    TMP DP  RH WIND       PRES   REMARKS
OCALA          CLEAR     66  61  82 CALM      30.13F
THE VILLAGES     N/A     68  64  88 CALM      30.03F
LEESBURG       CLEAR     70  63  78 E5        30.13F
SANFORD        MOCLDY    72  63  73 NE5       30.12F
ORLANDO EXEC   CLOUDY    75  64  68 NE5       30.12F
ORLANDO INTL   PTCLDY    71  65  81 N7        30.12F
WINTER HAVEN   CLEAR     70  64  81 NE8       30.12F
LAKELAND       CLEAR     70  63  78 NE5       30.11F
BARTOW         FAIR      68  63  83 NE3       30.12F
OKEECHOBEE     CLEAR     63  61  94 N5        30.10F

$$
FLZ041-047-054-059-064-141-147-290700-
EAST CENTRAL FLORIDA

CITY           SKY/WX    TMP DP  RH WIND       PRES   REMARKS
DAYTONA BEACH  LGT RAIN  75  65  70 E7        30.13F
DELAND           N/A     66  63  88 CALM      30.14F
JFK SPACE CTR  PTCLDY    72  61  67 E5        30.10F
CAPE CANAVERAL CLEAR     74  60  61 E6        30.10F
PATRICK AFB    PTCLDY    77  62  59 E12       30.10F
MELBOURNE      CLEAR     76  59  55 E10       30.10F
VERO BEACH     CLEAR     75  60  59 E6        30.09F
FT PIERCE      MOCLDY    76  63  64 E7        30.09F
STUART         PTCLDY    73  61  64 E9        30.09F

STATION/POSITION SKY/WX   TEMP    WIND        PRES    WAVE   SWELL
                          AIR SEA DIR/SP/G            HT/PER HT/PER
                          (F)     (DEG/KT/KT) (MB)    (FT/S) (FT/S)
28.5N   80.2W              77 80   90/ 10/ 12 1020.0F
28.9N   78.5W              77 81   50/ 14/ 16 1020.0F
TRIDENT PIER               76 82   70/  8/ 12 1020.4F
28.4N   80.5W                 82                N/A     3/ 8
27.5N   80.2W                 80                N/A     4/ 8

$$
FLZ050-056-061-142-242-148-248-149-249-151-251-155-255-
160-260-290700-
WEST CENTRAL FLORIDA

CITY           SKY/WX    TMP DP  RH WIND       PRES   REMARKS
CRYSTAL RIVER  FAIR      70  63  78 CALM      30.12F
INVERNESS      FAIR      68  63  83 CALM      30.13F
BROOKSVILLE    CLEAR     68  62  81 E6        30.12F
CLEARWATER     CLEAR     75  63  66 E13       30.10F
TAMPA INTL     CLEAR     74  61  63 E6        30.11F
TAMPA EXEC     CLEAR     68  63  83 CALM      30.12S
PLANT CITY     CLEAR     72  66  83 NE3       30.13F
MACDILL AFB    CLEAR     74  65  75 SE10      30.09F
PETER O KNIGHT CLEAR     73  64  73 E7        30.10F
ST PETERSBURG  CLEAR     77  65  66 SE18      30.09F
SARASOTA       CLEAR     70  62  76 E8        30.08F
VENICE         FAIR      70  63  78 E8        30.10F

STATION/POSITION SKY/WX   TEMP    WIND        PRES    WAVE   SWELL
                          AIR SEA DIR/SP/G            HT/PER HT/PER
                          (F)     (DEG/KT/KT) (MB)    (FT/S) (FT/S)
CEDAR KEY                  76     100/ 14/ 16 1020.3F
28.5N   84.5W              80 81   30/ 14/ 16 1018.7F   2/ 6   2/ 6
27.3N   84.2W                 81                N/A     2/ 6
CLEARWATER BEACH           77 84   90/  9/ 15 1019.5F
MIDDLE TAMPA BAY           75     110/ 16/ 18 1019.5F
VENICE                     71 84   60/  6/  8 1018.6F

$$
FLZ066-069-070-075>078-162-262-165-265-290700-
SOUTHWEST FLORIDA AND KEYS

CITY           SKY/WX    TMP DP  RH WIND       PRES   REMARKS
PUNTA GORDA    CLEAR     65  62  90 NE5       30.11F
FT MYERS       CLEAR     71  62  73 E6        30.07F
SOUTHWEST INTL CLOUDY    70  61  73 NE6       30.08F HAZE
NAPLES         CLEAR     72  61  68 NE8       30.07F
MARCO ISLAND     N/A     72  63  73 NE6       30.07S
IMMOKALEE      CLEAR    N/A N/A N/A CALM      30.09S
MARATHON       PTCLDY    80  67  64 E9G17     30.03F
KEY WEST NAS   PTCLDY    79  65  62 E16       30.03F
KEY WEST INTL  PTCLDY    79  66  64 E10       30.03F

STATION/POSITION SKY/WX   TEMP    WIND        PRES    WAVE   SWELL
                          AIR SEA DIR/SP/G            HT/PER HT/PER
                          (F)     (DEG/KT/KT) (MB)    (FT/S) (FT/S)
VENICE                     71 84   60/  6/  8 1018.6F
NAPLES                     75 83   70/  5/ 10 1018.5F
26.0N   85.6W              80 82   70/ 14/ 16 1017.6F   3/ 6   2/ 6
DRY TORTUGAS               81     100/ 15/ 17 1017.3S
NW FL BAY                  79      80/ 13/ 15 1017.7
SAND KEY                   79      90/ 19/ 21 1016.7F
SOMBRERO KEY               79     100/ 17/ 18 1017.1F
LONG KEY                   79 80   90/ 15/ 17 1017.7F
MOLASSES REEF              79 81   90/ 13/ 15 1016.9F

$$
FLZ067-068-071>074-168-172>174-290700-
SOUTHEAST FLORIDA

CITY           SKY/WX    TMP DP  RH WIND       PRES   REMARKS
W PALM BEACH   PTCLDY    78  61  55 E12       30.08F
FT LAUDER-EXEC PTCLDY    77  63  61 E12       30.06F
FT LAUDERDALE  PTCLDY    77  64  64 E13       30.06S
POMPANO BEACH  PTCLDY    77  61  57 E12       30.06F
PEMBROKE PINES PTCLDY    77  64  64 E9        30.07F
OPA LOCKA      MOCLDY    77  65  66 E6        30.06F
MIAMI          MOCLDY    78  63  59 E9        30.05F
WEST KENDALL   PTCLDY    75  64  68 E7        30.05F
HOMESTEAD      PTCLDY    76  64  65 E8        30.05F

STATION/POSITION SKY/WX   TEMP    WIND        PRES    WAVE   SWELL
                          AIR SEA DIR/SP/G            HT/PER HT/PER
                          (F)     (DEG/KT/KT) (MB)    (FT/S) (FT/S)
PORT EVERGLADES            78      70/ 11/ 15 1017.8F
VIRGINIA KEY               79 82   90/ 12/ 16 1017.6F
LAKE WORTH                 78 81   80/ 14/ 16 1018.2F
SETTLEMENT POINT           77      70/ 15/ 16 1018.5F

$$



USA.gov is the U.S. government's official web portal to all federal, state and local government web resources and services.